�������l�o���
Date,Time,MP-1(��Sv/h),MP-2(��Sv/h),MP-3(��Sv/h),MP-4(��Sv/h),MP-5(��Sv/h),MP-6(��Sv/h),MP-7(��Sv/h),MP-8(��Sv/h),����,����(m/s),���J
2020/03/12,00:00,0.686,0.980,0.660,1.201,0.845,0.397,0.693,0.657,�k��,3.7,��
2020/03/12,00:10,0.687,0.981,0.659,1.200,0.849,0.398,0.692,0.659,�k��,5.8,��
2020/03/12,00:20,0.686,0.981,0.661,1.197,0.846,0.397,0.694,0.659,���k��,4.9,��
2020/03/12,00:30,0.686,0.983,0.660,1.198,0.846,0.397,0.692,0.659,�k��,5.1,��
2020/03/12,00:40,0.685,0.980,0.660,1.197,0.847,0.398,0.695,0.657,�k��,6.0,��
2020/03/12,00:50,0.686,0.983,0.658,1.198,0.848,0.398,0.692,0.658,�k�k��,5.4,��
2020/03/12,01:00,0.684,0.981,0.660,1.198,0.848,0.396,0.694,0.659,�k�k��,4.6,��
2020/03/12,01:10,0.685,0.981,0.659,1.200,0.847,0.397,0.693,0.658,�k�k��,3.9,��
2020/03/12,01:20,0.687,0.981,0.659,1.198,0.846,0.398,0.691,0.659,�k�k��,4.0,��
2020/03/12,01:30,0.686,0.981,0.659,1.198,0.847,0.398,0.692,0.659,�k�k��,1.7,��
2020/03/12,01:40,0.684,0.980,0.659,1.197,0.847,0.398,0.690,0.657,�k�k��,5.0,��
2020/03/12,01:50,0.684,0.981,0.658,1.197,0.846,0.397,0.690,0.657,�k,1.7,��
2020/03/12,02:00,0.686,0.981,0.659,1.199,0.846,0.397,0.692,0.658,�k��,3.9,��
2020/03/12,02:10,0.684,0.980,0.659,1.197,0.846,0.397,0.691,0.657,�k��,2.8,��
2020/03/12,02:20,0.685,0.980,0.659,1.197,0.848,0.395,0.692,0.658,�k�k��,2.6,��
2020/03/12,02:30,0.684,0.981,0.659,1.199,0.847,0.398,0.690,0.658,���k��,1.5,��
2020/03/12,02:40,0.683,0.982,0.658,1.199,0.847,0.397,0.692,0.659,�k�k��,1.9,��
2020/03/12,02:50,0.684,0.983,0.660,1.198,0.846,0.397,0.690,0.658,���k��,4.6,��
2020/03/12,03:00,0.685,0.980,0.659,1.198,0.845,0.398,0.691,0.657,�k�k��,3.5,��
2020/03/12,03:10,0.686,0.979,0.658,1.195,0.846,0.396,0.691,0.659,�k�k��,4.3,��
2020/03/12,03:20,0.685,0.981,0.658,1.198,0.846,0.397,0.691,0.656,���k��,0.9,��
2020/03/12,03:30,0.682,0.981,0.659,1.201,0.846,0.398,0.691,0.658,�k�k��,3.0,��
2020/03/12,03:40,0.684,0.982,0.657,1.197,0.847,0.397,0.692,0.658,�k��,2.0,��
2020/03/12,03:50,0.685,0.979,0.657,1.199,0.848,0.397,0.690,0.659,��,3.6,��
2020/03/12,04:00,0.684,0.980,0.659,1.198,0.847,0.397,0.692,0.658,��,4.8,��
2020/03/12,04:10,0.683,0.982,0.660,1.198,0.848,0.398,0.691,0.657,���k��,5.0,��
2020/03/12,04:20,0.681,0.981,0.659,1.198,0.846,0.395,0.691,0.657,���k��,3.7,��
2020/03/12,04:30,0.685,0.981,0.659,1.198,0.847,0.397,0.689,0.657,�k�k��,3.5,��
2020/03/12,04:40,0.685,0.981,0.658,1.197,0.846,0.397,0.692,0.657,�k,2.5,��
2020/03/12,04:50,0.683,0.980,0.659,1.199,0.847,0.396,0.691,0.657,�k,1.7,��
2020/03/12,05:00,0.683,0.981,0.660,1.198,0.848,0.396,0.693,0.655,���쓌,1.2,��
2020/03/12,05:10,0.684,0.979,0.658,1.198,0.849,0.396,0.690,0.656,�k��,3.1,��
2020/03/12,05:20,0.684,0.980,0.658,1.200,0.849,0.396,0.691,0.658,�k�k��,4.2,��
2020/03/12,05:30,0.681,0.981,0.657,1.197,0.849,0.396,0.691,0.656,�k,3.9,��
2020/03/12,05:40,0.684,0.981,0.658,1.197,0.848,0.396,0.691,0.659,�k,3.3,��
2020/03/12,05:50,0.685,0.979,0.659,1.197,0.849,0.396,0.690,0.658,�k,3.9,��
2020/03/12,06:00,0.683,0.981,0.659,1.198,0.846,0.396,0.690,0.657,�k,3.8,��
2020/03/12,06:10,0.683,0.978,0.658,1.197,0.847,0.396,0.691,0.658,�k,4.1,��
2020/03/12,06:20,0.681,0.981,0.658,1.198,0.848,0.395,0.691,0.657,�k,2.2,��
2020/03/12,06:30,0.684,0.980,0.654,1.199,0.845,0.395,0.690,0.658,�k�k��,0.9,��
2020/03/12,06:40,0.683,0.980,0.657,1.198,0.848,0.397,0.688,0.657,-,CALM,��
2020/03/12,06:50,0.682,0.980,0.656,1.197,0.846,0.396,0.689,0.657,��,1.5,��
2020/03/12,07:00,0.684,0.979,0.657,1.200,0.847,0.396,0.689,0.658,-,CALM,��
2020/03/12,07:10,0.684,0.980,0.656,1.197,0.848,0.397,0.690,0.658,�k�k��,0.9,��
2020/03/12,07:20,0.682,0.980,0.656,1.200,0.847,0.396,0.691,0.657,�k��,0.6,��
2020/03/12,07:30,0.683,0.978,0.658,1.196,0.848,0.396,0.690,0.657,���k��,1.5,��
2020/03/12,07:40,0.683,0.981,0.656,1.197,0.848,0.395,0.692,0.656,��,0.9,��
2020/03/12,07:50,0.682,0.979,0.658,1.198,0.847,0.395,0.691,0.658,�쓌,1.2,��
2020/03/12,08:00,0.683,0.980,0.657,1.198,0.848,0.398,0.693,0.656,���쓌,1.5,��
2020/03/12,08:10,0.684,0.982,0.657,1.198,0.847,0.396,0.691,0.656,�쓌,2.6,��
2020/03/12,08:20,0.684,0.982,0.657,1.200,0.847,0.396,0.692,0.658,���쓌,2.2,��
2020/03/12,08:30,0.685,0.980,0.656,1.199,0.848,0.396,0.691,0.657,��,2.5,��
2020/03/12,08:40,0.683,0.977,0.657,1.199,0.847,0.396,0.690,0.658,���쓌,3.3,��
2020/03/12,08:50,0.685,0.981,0.658,1.198,0.847,0.395,0.687,0.657,���쓌,3.4,��
2020/03/12,09:00,0.685,0.978,0.659,1.197,0.848,0.396,0.687,0.660,���쓌,3.9,��
2020/03/12,09:10,0.683,0.976,0.658,1.199,0.849,0.397,0.691,0.658,���쓌,4.8,��
2020/03/12,09:20,0.683,0.975,0.659,1.197,0.842,0.396,0.690,0.657,��,4.2,��
2020/03/12,09:30,0.685,0.976,0.658,1.198,0.835,0.397,0.689,0.658,���쓌,4.5,��
2020/03/12,09:40,0.686,0.976,0.656,1.199,0.847,0.397,0.690,0.658,��,5.0,��
2020/03/12,09:50,0.685,0.975,0.659,1.199,0.848,0.398,0.690,0.657,��,4.0,��
2020/03/12,10:00,0.686,0.975,0.659,1.202,0.851,0.397,0.691,0.657,���쓌,5.0,��
2020/03/12,10:10,0.686,0.976,0.658,1.200,0.848,0.397,0.689,0.657,���쓌,4.3,��
2020/03/12,10:20,0.685,0.976,0.658,1.201,0.851,0.397,0.689,0.655,��,5.3,��
2020/03/12,10:30,0.687,0.977,0.659,1.199,0.849,0.397,0.689,0.656,�쓌,5.0,��
2020/03/12,10:40,0.685,0.980,0.659,1.198,0.850,0.397,0.689,0.656,���쓌,3.8,��
2020/03/12,10:50,0.684,0.979,0.658,1.203,0.847,0.397,0.690,0.654,�쓌,4.8,��
2020/03/12,11:00,0.683,0.979,0.660,1.201,0.848,0.396,0.689,0.654,���쓌,5.9,��
2020/03/12,11:10,0.686,0.978,0.660,1.200,0.853,0.396,0.689,0.655,�쓌,4.5,��
2020/03/12,11:20,0.685,0.979,0.659,1.202,0.850,0.396,0.689,0.655,���쓌,4.6,��
2020/03/12,11:30,0.685,0.980,0.658,1.200,0.849,0.397,0.689,0.657,�쓌,4.2,��
2020/03/12,11:40,0.686,0.980,0.661,1.199,0.852,0.397,0.690,0.656,���쓌,4.2,��
2020/03/12,11:50,0.685,0.978,0.660,1.199,0.853,0.397,0.688,0.656,���쓌,5.1,��
2020/03/12,12:00,0.687,0.980,0.660,1.200,0.850,0.396,0.690,0.655,��,4.8,��
2020/03/12,12:10,0.689,0.982,0.661,1.201,0.852,0.398,0.689,0.655,��,5.1,��
2020/03/12,12:20,0.687,0.983,0.662,1.204,0.853,0.397,0.690,0.655,��,4.7,��
2020/03/12,12:30,0.687,0.982,0.660,1.202,0.851,0.397,0.689,0.656,���쓌,4.9,��
2020/03/12,12:40,0.690,0.984,0.662,1.202,0.852,0.396,0.690,0.657,���쓌,5.3,��
2020/03/12,12:50,0.688,0.983,0.660,1.202,0.853,0.397,0.689,0.656,���쓌,6.2,��
2020/03/12,13:00,0.687,0.982,0.662,1.200,0.854,0.397,0.690,0.657,���쓌,6.2,��
2020/03/12,13:10,0.690,0.981,0.660,1.201,0.851,0.398,0.690,0.658,���쓌,6.8,��
2020/03/12,13:20,0.687,0.984,0.662,1.201,0.852,0.398,0.690,0.658,���쓌,4.9,��
2020/03/12,13:30,0.688,0.982,0.662,1.203,0.852,0.397,0.692,0.657,�쓌,6.9,��
2020/03/12,13:40,0.688,0.980,0.662,1.204,0.851,0.396,0.691,0.658,���쓌,5.4,��
2020/03/12,13:50,0.687,0.982,0.661,1.202,0.850,0.398,0.691,0.655,�쓌,4.6,��
2020/03/12,14:00,0.688,0.982,0.660,1.201,0.852,0.398,0.691,0.654,���쓌,5.0,��
2020/03/12,14:10,0.688,0.981,0.655,1.203,0.852,0.397,0.691,0.657,���쓌,4.3,��
2020/03/12,14:20,0.690,0.984,0.660,1.202,0.853,0.398,0.690,0.656,���쓌,4.6,��
2020/03/12,14:30,0.689,0.983,0.661,1.202,0.853,0.397,0.691,0.656,���쓌,4.4,��
2020/03/12,14:40,0.688,0.987,0.661,1.203,0.853,0.398,0.690,0.656,���쓌,4.3,��
2020/03/12,14:50,0.690,0.987,0.660,1.203,0.853,0.398,0.691,0.657,���쓌,3.2,��
2020/03/12,15:00,0.688,0.990,0.659,1.203,0.855,0.397,0.690,0.658,�쓌,4.3,��
2020/03/12,15:10,0.687,0.987,0.659,1.203,0.853,0.396,0.690,0.656,�쓌,2.9,��
2020/03/12,15:20,0.687,0.990,0.659,1.201,0.853,0.398,0.691,0.656,���k��,2.5,��
2020/03/12,15:30,0.688,0.989,0.658,1.204,0.853,0.396,0.689,0.655,��,3.2,��
2020/03/12,15:40,0.686,0.988,0.659,1.203,0.855,0.397,0.691,0.655,���쓌,4.6,��
2020/03/12,15:50,0.687,0.989,0.660,1.204,0.853,0.398,0.691,0.657,���쓌,3.7,��
2020/03/12,16:00,0.686,0.991,0.660,1.204,0.853,0.398,0.692,0.657,���쓌,4.7,��
2020/03/12,16:10,0.687,0.991,0.659,1.205,0.853,0.396,0.691,0.656,���쓌,5.3,��
2020/03/12,16:20,0.688,0.988,0.659,1.201,0.852,0.396,0.690,0.657,�쓌,5.4,��
2020/03/12,16:30,0.685,0.994,0.658,1.202,0.853,0.398,0.690,0.659,���쓌,5.1,��
2020/03/12,16:40,0.687,0.991,0.660,1.202,0.852,0.397,0.689,0.658,���쓌,4.7,��
2020/03/12,16:50,0.687,0.991,0.658,1.202,0.854,0.397,0.690,0.659,�쓌,4.7,��
2020/03/12,17:00,0.686,0.992,0.657,1.201,0.852,0.396,0.691,0.660,��쓌,7.1,��
2020/03/12,17:10,0.687,0.992,0.658,1.204,0.855,0.396,0.692,0.659,��쓌,6.3,��
2020/03/12,17:20,0.688,0.991,0.659,1.203,0.851,0.397,0.692,0.660,��쓌,7.3,��
2020/03/12,17:30,0.687,0.993,0.659,1.201,0.849,0.398,0.691,0.658,��쓌,7.3,��
2020/03/12,17:40,0.687,0.988,0.661,1.204,0.850,0.398,0.692,0.658,��쓌,7.7,��
2020/03/12,17:50,0.688,0.989,0.659,1.202,0.852,0.397,0.693,0.659,��쓌,6.9,��
2020/03/12,18:00,0.687,0.992,0.660,1.205,0.854,0.398,0.692,0.658,��쓌,6.1,��
2020/03/12,18:10,0.687,0.991,0.660,1.205,0.856,0.399,0.692,0.660,��쓌,7.5,��
2020/03/12,18:20,0.686,0.991,0.660,1.202,0.856,0.397,0.692,0.659,��쓌,6.3,��
2020/03/12,18:30,0.687,0.991,0.661,1.204,0.857,0.401,0.692,0.657,��쓌,5.4,��
2020/03/12,18:40,0.686,0.991,0.661,1.205,0.858,0.397,0.693,0.660,��,6.4,��
2020/03/12,18:50,0.687,0.990,0.661,1.203,0.854,0.398,0.693,0.658,��,5.6,��
2020/03/12,19:00,0.687,0.991,0.659,1.203,0.857,0.397,0.693,0.658,��,6.6,��
2020/03/12,19:10,0.687,0.992,0.660,1.199,0.855,0.398,0.694,0.658,��,6.5,��
2020/03/12,19:20,0.688,0.993,0.660,1.203,0.856,0.398,0.693,0.659,��,6.8,��
2020/03/12,19:30,0.686,0.989,0.661,1.204,0.854,0.398,0.694,0.659,��,6.8,��
2020/03/12,19:40,0.686,0.991,0.659,1.203,0.855,0.397,0.693,0.658,��,6.2,��
2020/03/12,19:50,0.687,0.991,0.660,1.203,0.854,0.399,0.692,0.657,��,6.3,��
2020/03/12,20:00,0.687,0.991,0.659,1.203,0.856,0.397,0.693,0.658,��,6.7,��
2020/03/12,20:10,0.686,0.993,0.660,1.204,0.855,0.398,0.691,0.659,��,7.0,��
2020/03/12,20:20,0.688,0.991,0.659,1.205,0.854,0.400,0.692,0.658,��,7.4,��
2020/03/12,20:30,0.687,0.993,0.660,1.203,0.857,0.397,0.694,0.658,��,8.2,��
2020/03/12,20:40,0.684,0.991,0.660,1.206,0.854,0.399,0.693,0.657,��,7.9,��
2020/03/12,20:50,0.688,0.989,0.661,1.203,0.855,0.397,0.693,0.659,��,7.9,��
2020/03/12,21:00,0.686,0.991,0.659,1.203,0.855,0.398,0.693,0.658,��쐼,7.1,��
2020/03/12,21:10,0.688,0.988,0.659,1.204,0.856,0.397,0.694,0.658,��쐼,6.8,��
2020/03/12,21:20,0.688,0.991,0.659,1.206,0.856,0.398,0.692,0.659,��쐼,6.2,��
2020/03/12,21:30,0.688,0.990,0.658,1.203,0.856,0.396,0.692,0.658,��쐼,5.1,��
2020/03/12,21:40,0.687,0.989,0.660,1.204,0.856,0.397,0.693,0.658,��쐼,4.7,��
2020/03/12,21:50,0.687,0.989,0.660,1.201,0.854,0.398,0.693,0.657,��쐼,4.9,��
2020/03/12,22:00,0.687,0.991,0.660,1.203,0.855,0.397,0.691,0.659,��쐼,4.6,��
2020/03/12,22:10,0.687,0.990,0.659,1.205,0.855,0.396,0.691,0.657,��쐼,4.1,��
2020/03/12,22:20,0.688,0.989,0.659,1.204,0.855,0.397,0.692,0.659,��,4.4,��
2020/03/12,22:30,0.686,0.991,0.659,1.202,0.856,0.397,0.694,0.659,��,4.8,��
2020/03/12,22:40,0.687,0.989,0.659,1.204,0.854,0.397,0.693,0.659,��,4.2,��
2020/03/12,22:50,0.686,0.989,0.660,1.203,0.856,0.398,0.692,0.657,��,3.3,��
2020/03/12,23:00,0.688,0.988,0.659,1.204,0.856,0.397,0.691,0.658,��쐼,3.4,��
2020/03/12,23:10,0.686,0.990,0.657,1.205,0.857,0.397,0.693,0.657,��쐼,3.1,��
2020/03/12,23:20,0.685,0.989,0.658,1.203,0.856,0.397,0.690,0.659,��쐼,3.2,��
2020/03/12,23:30,0.687,0.987,0.658,1.204,0.855,0.398,0.693,0.658,�쐼,2.6,��
2020/03/12,23:40,0.687,0.987,0.660,1.205,0.856,0.397,0.692,0.658,�쐼,1.5,��
2020/03/12,23:50,0.686,0.988,0.659,1.204,0.854,0.398,0.692,0.658,���쐼,1.2,��
